Regional Weather Roundup
Issued by NWS

Home | Current Version | Previous Version | Text Only | Print | Product List | Glossary On
Versions: 1 2 3 4 5 6 7 8 9 10 11 12 13 14 15 16 17 18 19 20 21 22 23 24 25 26 27 28 29 30 31 32 33 34 35 36 37 38 39 40 41 42 43 44 45 46 47 48 49 50
890
ASUS43 KLSX 280107
RWRMO

WEATHER SUMMARY FOR MISSOURI
NATIONAL WEATHER SERVICE SPRINGFIELD MO
800 PM CDT WED JUL 27 2016

NOTE: "FAIR" INDICATES FEW OR NO CLOUDS BELOW 12,000 FEET WITH NO
       SIGNIFICANT WEATHER AND/OR OBSTRUCTIONS TO VISIBILITY.
       CURRENT SKY AND/OR WEATHER CONDITIONS ARE NOT AVAILABLE FOR
       CHILLICOTHE AND FARMINGTON.

MOZ001>031-035>038-043-044-053-054-280200-
...NORTHERN AND WESTERN MISSOURI...

CITY           SKY/WX    TMP DP  RH WIND       PRES   REMARKS
KANSAS CTY INT MOCLDY    85  71  63 W3        29.91S HX  90
KANSAS C DTWN  PTCLDY    87  71  58 N5        29.89S HX  93
LEE`S SUMMIT   CLOUDY    86  73  65 E5        29.91S HX  93
ST JOSEPH      PTCLDY    85  71  63 CALM      29.90R HX  90
CHILLICOTHE      N/A     86  73  65 NE3       29.91S HX  93
KIRKSVILLE     CLEAR     84  71  65 W3        29.92S

$$
MOZ066>068-077>081-088>096-101>105-280200-
...SOUTHWEST MISSOURI...

CITY           SKY/WX    TMP DP  RH WIND       PRES   REMARKS
SPRINGFIELD    CLOUDY    81  74  79 CALM      29.95R
JOPLIN         CLEAR     79  72  79 SE12      29.93S
BRANSON        MOCLDY    81  77  89 CALM      29.96R

$$
MOZ032>034-039>042-045>050-055>058-069>072-280200-
...CENTRAL MISSOURI...

CITY           SKY/WX    TMP DP  RH WIND       PRES   REMARKS
COLUMBIA       CLEAR     84  76  76 S3        29.89F HX  93
JEFFERSON CITY CLOUDY    85  78  80 CALM      29.87F HX  96
ROLLA          CLOUDY    82  74  76 SW5       29.91F
SEDALIA        CLEAR     85  73  67 CALM      29.91S HX  91
WHITEMAN AFB   PTCLDY    83  79  88 S3        29.89S HX  94
OSAGE BEACH    CLOUDY    84  77  79 S5        29.91F HX  94

$$
MOZ051-052-059>065-280200-
...EAST CENTRAL MISSOURI...

CITY           SKY/WX    TMP DP  RH WIND       PRES   REMARKS
ST LOUIS INTL  MOCLDY    85  72  65 S5        29.91R HX  91
SPIRIT OF STL  CLOUDY    82  74  76 CALM      29.88S
ST CHARLES     PTCLDY    83  76  79 S8        29.88S HX  91

$$
MOZ072>076-082>087-097>100-106>115-280200-
...SOUTH CENTRAL AND SOUTHEAST MISSOURI...

CITY           SKY/WX    TMP DP  RH WIND       PRES   REMARKS
CAPE GIRARDEAU CLOUDY    75  71  87 SE3       29.90F
FARMINGTON     MOCLDY    79  76  90 CALM      29.93F
POPLAR BLUFF   HVY RAIN  77  75  93 NW5       29.91R FOG
WEST PLAINS    CLOUDY    74  70  87 W6        29.97F

$$



USA.gov is the U.S. government's official web portal to all federal, state and local government web resources and services.